Knoxville, TN

3:31 PM EDT on June 25, 2017 (GMT -0400)
McGhee Tyson

Weather History for KTYS - May, 2014

Change the Weather History Date:

Wednesday, May 14, 2014

  Actual Average Record
Temperature  
Mean Temperature 76 °F 67 °F  
Max Temperature 90 °F 78 °F 91 °F (1916)
Min Temperature 62 °F 56 °F 39 °F (1917)
Degree Days  
Heating Degree Days 0 2  
Month to date heating degree days 23 39  
Since 1 July heating degree days 3759 3614  
Cooling Degree Days 11 4  
Month to date cooling degree days 77 36  
Year to date cooling degree days 109 73  
Growing Degree Days 26 (Base 50)    
Moisture  
Dew Point 61 °F    
Average Humidity 62    
Maximum Humidity 100    
Minimum Humidity 24    
Precipitation  
Precipitation 0.39 in 0.16 in 1.63 in (2012)
Month to date precipitation 0.60 2.12  
Year to date precipitation 15.41 19.05  
Snow  
Snow 0.00 in 0.00 in - ()
Month to date snowfall 0.0 0.0  
Since 1 July snowfall 12.4 6.5  
Snow Depth 0.00 in    
Sea Level Pressure  
Sea Level Pressure 30.01 in    
Wind  
Wind Speed 8 mph (SSE)    
Max Wind Speed 24 mph    
Max Gust Speed 28 mph    
Visibility 8 miles    
Events Fog , Rain    
T = Trace of Precipitation, MM = Missing Value Source: NWS Daily Summary

Daily Weather History Graph

Daily Weather History Graph

Search for Another Location

Airport or City:

Trip Planner

Search our weather history database for the weather conditions in past years. The results will help you decide how hot, cold, wet, or windy it might be!

Date:

Astronomy

May. 14, 2014 Rise Set
Actual Time 6:31 AM EDT 8:33 PM EDT
Civil Twilight 6:03 AM EDT 9:02 PM EDT
Nautical Twilight 5:28 AM EDT 9:36 PM EDT
Astronomical Twilight 4:51 AM EDT 10:14 PM EDT
Moon 8:39 PM EDT (5/14) 6:27 AM EDT (5/14)
Length of Visible Light 14h 59m
Length of Day
14h 02m
Full, 100% of the Moon is Illuminated
May 14
Full
May 14
Full
May 21
Last Quarter
May 28
New
Jun 5
First Quarter

Hourly Weather History & Observations

Time (EDT) Temp. Heat Index Dew Point Humidity Pressure Visibility Wind Dir Wind Speed Gust Speed Precip Events Conditions
12:53 AM 68.0 °F - 66.0 °F 93% 30.08 in 10.0 mi North 3.5 mph - N/A   Scattered Clouds
1:53 AM 68.0 °F - 66.0 °F 93% 30.08 in 10.0 mi NNE 3.5 mph - N/A   Overcast
2:53 AM 66.0 °F - 64.9 °F 96% 30.06 in 9.0 mi NE 3.5 mph - N/A   Overcast
3:53 AM 66.0 °F - 64.9 °F 96% 30.06 in 10.0 mi NE 5.8 mph - N/A   Mostly Cloudy
4:53 AM 64.4 °F - 64.4 °F 100% 30.09 in 8.0 mi Calm Calm - N/A   Mostly Cloudy
6:29 AM 64.0 °F - 63.0 °F 96% 30.08 in 6.0 mi NNE 3.5 mph - N/A Fog Patches of Fog
6:39 AM 64.0 °F - 63.0 °F 96% 30.08 in 0.8 mi Calm Calm - N/A Fog Patches of Fog
6:41 AM 64.0 °F - 63.0 °F 96% 30.08 in 4.0 mi Calm Calm - N/A Fog Patches of Fog
6:53 AM 63.0 °F - 62.1 °F 97% 30.05 in 4.0 mi ENE 4.6 mph - N/A Fog Patches of Fog
7:06 AM 62.1 °F - 62.1 °F 100% 30.08 in 2.0 mi Calm Calm - N/A Fog Patches of Fog
7:27 AM 63.0 °F - 63.0 °F 100% 30.09 in 2.5 mi Calm Calm - N/A Fog Patches of Fog
7:39 AM 63.0 °F - 63.0 °F 100% 30.10 in 4.0 mi Calm Calm - N/A Fog Patches of Fog
7:53 AM 64.9 °F - 64.0 °F 97% 30.07 in 5.0 mi Calm Calm - N/A Fog Patches of Fog
8:53 AM 70.0 °F - 64.9 °F 84% 30.07 in 10.0 mi East 4.6 mph - N/A   Scattered Clouds
9:53 AM 77.0 °F - 62.1 °F 60% 30.07 in 10.0 mi South 6.9 mph - N/A   Scattered Clouds
11:53 AM 81.0 °F 82.2 °F 63.0 °F 54% 30.04 in 10.0 mi SW 10.4 mph - N/A   Partly Cloudy
12:53 PM 82.0 °F 82.7 °F 61.0 °F 49% 30.02 in 10.0 mi SSW 11.5 mph - N/A   Mostly Cloudy
1:53 PM 84.9 °F 84.2 °F 57.9 °F 40% 29.97 in 10.0 mi SSE 11.5 mph 19.6 mph N/A   Mostly Cloudy
2:53 PM 86.0 °F 84.7 °F 55.9 °F 36% 29.94 in 10.0 mi South 12.7 mph 19.6 mph N/A   Mostly Cloudy
3:53 PM 89.1 °F - 48.0 °F 24% 29.91 in 10.0 mi SSW 17.3 mph 28.8 mph N/A   Mostly Cloudy
4:53 PM 84.9 °F - 50.0 °F 30% 29.89 in 10.0 mi SSW 19.6 mph - 0.00 in Rain Light Rain
5:53 PM 84.0 °F 82.6 °F 54.0 °F 35% 29.90 in 10.0 mi South 18.4 mph 25.3 mph N/A   Overcast
6:53 PM 80.1 °F 80.0 °F 54.0 °F 40% 29.91 in 10.0 mi South 12.7 mph - N/A   Overcast
7:53 PM 77.0 °F - 55.0 °F 47% 29.91 in 10.0 mi South 5.8 mph - N/A   Overcast
8:53 PM 77.0 °F - 55.9 °F 48% 29.91 in 10.0 mi Calm Calm - 0.00 in Rain Light Rain
9:53 PM 69.1 °F - 63.0 °F 81% 29.96 in 5.0 mi SW 9.2 mph - 0.09 in Rain Light Rain
10:53 PM 66.0 °F - 64.9 °F 96% 29.94 in 4.0 mi West 6.9 mph - 0.16 in Rain Rain
11:53 PM 66.0 °F - 64.9 °F 96% 29.89 in 6.0 mi NNE 6.9 mph - 0.06 in Rain Light Rain